_id,date,ETo[mm]
1,2017-03-30,0.7
2,2017-03-31,0.7
3,2017-04-01,0.7
4,2017-04-02,0.7
5,2017-04-03,0.7
6,2017-04-04,0.6
7,2017-04-05,0.7
8,2017-04-06,0.8
9,2017-04-07,5.9
10,2017-04-08,3.8
11,2017-04-09,1.9
12,2017-04-10,4.7
13,2017-04-11,3.8
14,2017-04-12,4.7
15,2017-04-13,4.4
16,2017-04-14,4.9
17,2017-04-15,7.6
18,2017-04-16,8.7
19,2017-04-17,5.0
20,2017-04-18,7.4
21,2017-04-19,7.1
22,2017-04-20,6.1
23,2017-04-21,5.1
24,2017-04-22,5.6
25,2017-04-23,6.1
26,2017-04-24,7.6
27,2017-04-25,7.5
28,2017-04-26,8.7
29,2017-04-27,9.0
30,2017-04-28,9.0
31,2017-04-29,8.8
32,2017-04-30,8.4
33,2017-05-01,7.8
34,2017-05-02,7.6
35,2017-05-03,8.5
36,2017-05-04,8.4
37,2017-05-05,6.8
38,2017-05-06,9.4
39,2017-05-07,10.9
40,2017-05-08,8.7
41,2017-05-09,7.2
42,2017-05-10,10.1
43,2017-05-11,10.3
44,2017-05-12,10.4
45,2017-05-13,13.9
46,2017-05-14,10.1
47,2017-05-15,5.1
48,2017-05-16,7.2
49,2017-05-17,7.2
50,2017-05-18,6.7
51,2017-05-19,8.5
52,2017-05-20,9.5
53,2017-05-21,9.7
54,2017-05-22,6.9
55,2017-05-23,6.8
56,2017-05-24,9.8
57,2017-05-25,8.2
58,2017-05-26,10.2
59,2017-05-27,9.7
60,2017-05-28,8.7
61,2017-05-29,9.0
62,2017-05-30,8.8
63,2017-05-31,8.6
64,2017-06-01,9.1
65,2017-06-02,10.3
66,2017-06-03,11.6
67,2017-06-04,11.8
68,2017-06-05,10.5
69,2017-06-06,8.7
70,2017-06-07,6.7
71,2017-06-08,7.2
72,2017-06-09,8.2
73,2017-06-10,7.5
74,2017-06-11,11.4
75,2017-06-12,10.4
76,2017-06-13,9.0
77,2017-06-14,10.1
78,2017-06-15,12.3
79,2017-06-16,9.7
80,2017-06-17,6.9
81,2017-06-18,11.4
82,2017-06-19,8.8
83,2017-06-20,9.2
84,2017-06-21,7.2
85,2017-06-22,8.9
86,2017-06-23,11.0
87,2017-06-24,9.6
88,2017-06-25,8.0
89,2017-06-26,8.0
90,2017-06-27,8.7
91,2017-06-28,8.2
92,2017-06-29,12.6
93,2017-06-30,15.2
94,2017-07-01,14.4
95,2017-07-02,11.0
96,2017-07-03,8.1
97,2017-07-04,8.5
98,2017-07-05,9.4
99,2017-07-06,10.9
100,2017-07-07,11.6
101,2017-07-08,11.4
102,2017-07-09,11.7
103,2017-07-10,10.6
104,2017-07-11,10.4
105,2017-07-12,8.6
106,2017-07-13,10.2
107,2017-07-14,8.9
108,2017-07-15,11.5
109,2017-07-16,10.7
110,2017-07-17,9.7
111,2017-07-18,7.6
112,2017-07-19,7.8
113,2017-07-20,10.0
114,2017-07-21,12.5
115,2017-07-22,12.2
116,2017-07-23,8.0
117,2017-07-24,12.3
118,2017-07-25,12.2
119,2017-07-26,10.4
120,2017-07-27,8.7
121,2017-07-28,8.0
122,2017-07-29,9.3
123,2017-07-30,9.8
124,2017-07-31,11.9
125,2017-08-01,11.7
126,2017-08-02,12.0
127,2017-08-03,9.9
128,2017-08-04,9.4
129,2017-08-05,6.1
130,2017-08-06,7.8
131,2017-08-07,8.9
132,2017-08-08,8.7
133,2017-08-09,8.5
134,2017-08-10,9.2
135,2017-08-11,11.6
136,2017-08-12,10.1
137,2017-08-13,10.2
138,2017-08-14,10.9
139,2017-08-15,10.3
140,2017-08-16,11.6
141,2017-08-17,9.6
142,2017-08-18,8.7
143,2017-08-19,7.5
144,2017-08-20,10.2
145,2017-08-21,10.3
146,2017-08-22,10.3
147,2017-08-23,9.0
148,2017-08-24,8.8
149,2017-08-25,8.2
150,2017-08-26,8.4
151,2017-08-27,8.2
152,2017-08-28,5.7
153,2017-08-29,7.4
154,2017-08-30,9.5
155,2017-08-31,10.2
156,2017-09-01,10.7
157,2017-09-02,13.3
158,2017-09-03,9.9
159,2017-09-04,7.3
160,2017-09-05,7.7
161,2017-09-06,8.3
162,2017-09-07,7.7
163,2017-09-08,7.5
164,2017-09-09,5.7
165,2017-09-10,7.8
166,2017-09-11,4.5
167,2017-09-12,4.5
168,2017-09-13,7.5
169,2017-09-14,7.1
170,2017-09-15,5.0
171,2017-09-16,7.2
172,2017-09-17,11.4
173,2017-09-18,8.3
174,2017-09-19,9.0
175,2017-09-20,6.8
176,2017-09-21,7.5
177,2017-09-22,7.4
178,2017-09-23,5.4
179,2017-09-24,4.3
180,2017-09-25,7.2
181,2017-09-26,7.0
182,2017-09-27,7.2
183,2017-09-28,6.5
184,2017-09-29,4.9
185,2017-09-30,4.1
186,2017-10-01,4.7
187,2017-10-02,4.0
188,2017-10-03,4.3
189,2017-10-04,3.4
190,2017-10-05,2.6
191,2017-10-06,3.2
192,2017-10-07,4.5
193,2017-10-08,5.1
194,2017-10-09,3.6
195,2017-10-10,4.5
196,2017-10-11,4.5
197,2017-10-12,5.0
198,2017-10-13,4.8
199,2017-10-14,3.5
200,2017-10-15,4.5
201,2017-10-16,4.2
202,2017-10-17,3.7
203,2017-10-18,3.5
204,2017-10-19,4.2
205,2017-10-20,2.0
206,2017-10-21,2.4
207,2017-10-22,2.8
208,2017-10-23,3.5
209,2017-10-24,3.3
210,2017-10-25,2.6
211,2017-10-26,3.2
212,2017-10-27,2.4
213,2017-10-28,2.9
214,2017-10-29,2.9
215,2017-10-30,2.1
216,2017-10-31,2.5
217,2017-11-01,2.4
218,2017-11-02,2.5
219,2017-11-03,2.5
220,2017-11-04,2.6
221,2017-11-05,3.5
222,2017-11-06,2.2
223,2017-11-07,2.3
224,2017-11-08,2.1
225,2017-11-09,3.3
226,2017-11-10,3.9
227,2017-11-11,2.1
228,2017-11-12,1.8
229,2017-11-13,1.8
230,2017-11-14,1.8
231,2017-11-15,1.3
232,2017-11-16,1.6
233,2017-11-17,1.5
234,2017-11-18,1.5
235,2017-11-19,1.5
236,2017-11-20,1.3
237,2017-11-21,1.3
238,2017-11-22,1.6
239,2017-11-23,1.7
240,2017-11-24,1.9
241,2017-11-25,1.5
242,2017-11-26,1.7
243,2017-11-27,2.5
244,2017-11-28,1.8
245,2017-11-29,1.6
246,2017-11-30,2.1
247,2017-12-01,3.2
248,2017-12-02,1.3
249,2017-12-03,1.2
250,2017-12-04,1.3
251,2017-12-05,1.5
252,2017-12-06,2.4
253,2017-12-07,2.2
254,2017-12-08,1.8
255,2017-12-09,1.4
256,2017-12-10,1.3
257,2017-12-11,2.0
258,2017-12-12,2.6
259,2017-12-13,1.7
260,2017-12-14,1.4
261,2017-12-15,1.2
262,2017-12-16,1.1
263,2017-12-17,2.3
264,2017-12-18,1.3
265,2017-12-19,1.9
266,2017-12-20,2.7
267,2017-12-21,2.7
268,2017-12-22,1.3
269,2017-12-23,1.5
270,2017-12-24,1.6
271,2017-12-25,1.0
272,2017-12-26,1.0
273,2017-12-27,1.6
274,2017-12-28,1.2
275,2017-12-29,1.2
276,2017-12-30,1.3
277,2017-12-31,1.7
278,2018-01-01,1.1
279,2018-01-02,1.3
280,2018-01-03,1.2
281,2018-01-04,1.4
282,2018-01-05,1.4
283,2018-01-06,2.2
284,2018-01-07,3.5
285,2018-01-08,2.4
286,2018-01-09,3.3
287,2018-01-10,1.5
288,2018-01-11,1.4
289,2018-01-12,1.5
290,2018-01-13,1.4
291,2018-01-14,1.0
292,2018-01-15,2.7
293,2018-01-16,2.4
294,2018-01-17,1.4
295,2018-01-18,2.1
296,2018-01-19,3.1
297,2018-01-20,1.7
298,2018-01-21,1.6
299,2018-01-22,2.0
300,2018-01-23,2.0
301,2018-01-24,3.2
302,2018-01-25,2.1
303,2018-01-26,1.9
304,2018-01-27,2.9
305,2018-01-28,4.2
306,2018-01-29,2.8
307,2018-01-30,2.6
308,2018-01-31,3.3
309,2018-02-01,1.5
310,2018-02-02,1.1
311,2018-02-03,0.9
312,2018-02-04,2.1
313,2018-02-05,1.6
314,2018-02-06,2.9
315,2018-02-07,1.8
316,2018-02-08,1.5
317,2018-02-09,2.2
318,2018-02-10,1.6
319,2018-02-11,2.2
320,2018-02-12,2.2
321,2018-02-13,1.9
322,2018-02-14,2.0
323,2018-02-15,2.3
324,2018-02-16,2.0
325,2018-02-17,1.7
326,2018-02-18,1.7
327,2018-02-19,2.0
328,2018-02-20,2.2
329,2018-02-21,1.7
330,2018-02-22,2.2
331,2018-02-23,2.2
332,2018-02-24,3.3
333,2018-02-25,2.3
334,2018-02-26,2.5
335,2018-02-27,2.3
336,2018-02-28,3.5
337,2018-03-01,5.0
338,2018-03-02,2.7
339,2018-03-03,4.0
340,2018-03-04,6.1
341,2018-03-05,3.8
342,2018-03-06,4.4
343,2018-03-07,4.0
344,2018-03-08,5.5
345,2018-03-09,4.4
346,2018-03-10,4.3
347,2018-03-11,6.6
348,2018-03-12,4.5
349,2018-03-13,4.3
350,2018-03-14,4.3
351,2018-03-15,5.3
352,2018-03-16,6.8
353,2018-03-17,3.8
354,2018-03-18,4.5
355,2018-03-19,3.2
356,2018-03-20,4.9
357,2018-03-21,3.5
358,2018-03-22,2.9
359,2018-03-23,3.3
360,2018-03-24,3.6
361,2018-03-25,3.8
362,2018-03-26,3.5
363,2018-03-27,3.7
364,2018-03-28,3.5
365,2018-03-29,4.0
366,2018-03-30,5.9
367,2018-03-31,4.9
368,2018-04-01,5.0
369,2018-04-02,6.6
370,2018-04-03,7.5
371,2018-04-04,7.2
372,2018-04-05,7.5
373,2018-04-06,6.8
374,2018-04-07,7.9
375,2018-04-08,11.1
376,2018-04-09,5.9
377,2018-04-10,5.5
378,2018-04-11,6.0
379,2018-04-12,5.7
380,2018-04-13,6.2
381,2018-04-14,7.5
382,2018-04-15,4.6
383,2018-04-16,4.3
384,2018-04-17,5.3
385,2018-04-18,5.8
386,2018-04-19,5.9
387,2018-04-20,6.2
388,2018-04-21,6.2
389,2018-04-22,6.4
390,2018-04-23,8.6
391,2018-04-24,9.6
392,2018-04-25,8.7
393,2018-04-26,9.4
394,2018-04-27,8.6
395,2018-04-28,6.6
396,2018-04-29,5.2
397,2018-04-30,9.2
398,2018-05-01,10.5
399,2018-05-02,4.5
400,2018-05-03,4.8
401,2018-05-04,5.6
402,2018-05-05,7.9
403,2018-05-06,8.3
404,2018-05-07,8.8
405,2018-05-08,8.5
406,2018-05-09,8.3
407,2018-05-10,6.4
408,2018-05-11,6.4
409,2018-05-12,7.6
410,2018-05-13,8.4
411,2018-05-14,8.2
412,2018-05-15,5.7
413,2018-05-16,7.6
414,2018-05-17,6.6
415,2018-05-18,7.5
416,2018-05-19,8.0
417,2018-05-20,8.0
418,2018-05-21,8.5
419,2018-05-22,5.2
420,2018-05-23,7.6
421,2018-05-24,9.9
422,2018-05-25,10.5
423,2018-05-26,10.1
424,2018-05-27,10.2
425,2018-05-28,11.0
426,2018-05-29,10.5
427,2018-05-30,11.2
428,2018-05-31,8.8
429,2018-06-01,6.3
430,2018-06-02,8.4
431,2018-06-03,12.2
432,2018-06-04,10.3
433,2018-06-05,10.8
434,2018-06-06,9.5
435,2018-06-07,9.4
436,2018-06-08,9.3
437,2018-06-09,11.3
438,2018-06-10,13.6
439,2018-06-11,14.5
440,2018-06-12,11.8
441,2018-06-13,10.1
442,2018-06-14,7.4
443,2018-06-15,8.2
444,2018-06-16,7.2
445,2018-06-17,8.5
446,2018-06-18,8.6
447,2018-06-19,8.2
448,2018-06-20,7.9
449,2018-06-21,7.9
450,2018-06-22,7.4
451,2018-06-23,9.6
452,2018-06-24,10.7
453,2018-06-25,10.3
454,2018-06-26,8.3
455,2018-06-27,7.2
456,2018-06-28,8.4
457,2018-06-29,7.0
458,2018-06-30,11.9
459,2018-07-01,11.6
460,2018-07-02,13.7
461,2018-07-03,14.4
462,2018-07-04,11.8
463,2018-07-05,12.8
464,2018-07-06,13.0
465,2018-07-07,10.9
466,2018-07-08,10.7
467,2018-07-09,11.5
468,2018-07-10,10.3
469,2018-07-11,7.9
470,2018-07-12,8.4
471,2018-07-13,8.5
472,2018-07-14,9.2
473,2018-07-15,14.0
474,2018-07-16,12.4
475,2018-07-17,13.9
476,2018-07-18,12.4
477,2018-07-19,10.9
478,2018-07-20,12.5
479,2018-07-21,11.5
480,2018-07-22,11.7
481,2018-07-23,14.4
482,2018-07-24,10.3
483,2018-07-25,8.7
484,2018-07-26,10.1
485,2018-07-27,11.8
486,2018-07-28,12.0
487,2018-07-29,11.6
488,2018-07-30,11.1
489,2018-07-31,10.4
490,2018-08-01,9.3
491,2018-08-02,9.6
492,2018-08-03,10.2
493,2018-08-04,9.0
494,2018-08-05,8.8
495,2018-08-06,8.1
496,2018-08-07,7.8
497,2018-08-08,8.1
498,2018-08-09,10.1
499,2018-08-10,10.4
500,2018-08-11,8.7
501,2018-08-12,7.7
502,2018-08-13,5.6
503,2018-08-14,8.8
504,2018-08-15,9.6
505,2018-08-16,8.9
506,2018-08-17,8.0
507,2018-08-18,9.9
508,2018-08-19,8.9
509,2018-08-20,7.6
510,2018-08-21,7.3
511,2018-08-22,6.5
512,2018-08-23,6.9
513,2018-08-24,7.2
514,2018-08-25,5.7
515,2018-08-26,6.1
516,2018-08-27,10.0
517,2018-08-28,9.6
518,2018-08-29,6.6
519,2018-08-30,6.8
520,2018-08-31,7.1
521,2018-09-01,6.4
522,2018-09-02,6.5
523,2018-09-03,7.0
524,2018-09-04,8.5
525,2018-09-05,8.7
526,2018-09-06,6.0
527,2018-09-07,10.2
528,2018-09-08,8.7
529,2018-09-09,9.1
530,2018-09-10,8.2
531,2018-09-11,8.2
532,2018-09-12,6.1
533,2018-09-13,6.3
534,2018-09-14,5.3
535,2018-09-15,6.9
536,2018-09-16,6.4
537,2018-09-17,5.0
538,2018-09-18,5.2
539,2018-09-19,5.8
540,2018-09-20,7.2
541,2018-09-21,5.7
542,2018-09-22,5.8
543,2018-09-23,4.8
544,2018-09-24,4.7
545,2018-09-25,7.2
546,2018-09-26,6.1
547,2018-09-27,6.7
548,2018-09-28,3.0
549,2018-09-29,3.4
550,2018-09-30,3.8
551,2018-10-01,3.5
552,2018-10-02,5.2
553,2018-10-03,2.9
554,2018-10-04,2.3
555,2018-10-05,3.3
556,2018-10-06,3.4
557,2018-10-07,4.3
558,2018-10-08,1.1
559,2018-10-10,5.6
560,2018-10-11,5.0
561,2018-10-12,3.0
562,2018-10-13,4.0
563,2018-10-14,3.2
564,2018-10-15,3.5
565,2018-10-16,4.5
566,2018-10-17,6.3
567,2018-10-18,2.9
568,2018-10-19,3.2
569,2018-10-20,4.1
570,2018-10-21,3.2
571,2018-10-22,2.9
572,2018-10-23,3.3
573,2018-10-24,2.1
574,2018-10-25,2.6
575,2018-10-26,2.8
576,2018-10-27,3.4
577,2018-10-28,3.2
578,2018-10-29,3.1
579,2018-10-30,2.2
580,2018-10-31,4.8
581,2018-11-01,3.0
582,2018-11-02,1.5
583,2018-11-03,1.8
584,2018-11-04,1.9
585,2018-11-05,2.0
586,2018-11-06,1.8
587,2018-11-07,1.9
588,2018-11-08,1.6
589,2018-11-09,1.7
590,2018-11-10,2.1
591,2018-11-11,1.9
592,2018-11-12,3.0
593,2018-11-13,3.9
594,2018-11-14,3.1
595,2018-11-15,4.1
596,2018-11-16,3.5
597,2018-11-17,1.6
598,2018-11-18,1.4
599,2018-11-19,2.1
600,2018-11-20,1.7
601,2018-11-21,1.6
602,2018-11-22,1.9
603,2018-11-23,3.5
604,2018-11-24,1.9
605,2018-11-25,1.4
606,2018-11-26,1.6
607,2018-11-27,1.3
608,2018-11-28,1.5
609,2018-11-29,1.2
610,2018-11-30,1.4
611,2018-12-01,1.4
612,2018-12-02,1.0
613,2018-12-03,1.3
614,2018-12-04,1.3
615,2018-12-05,1.4
616,2018-12-06,1.4
617,2018-12-07,1.3
618,2018-12-08,1.3
619,2018-12-09,1.2
620,2018-12-10,1.2
621,2018-12-11,1.2
622,2018-12-12,1.2
623,2018-12-13,1.5
624,2018-12-14,1.7
625,2018-12-15,1.6
626,2018-12-16,1.2
627,2018-12-17,1.3
628,2018-12-18,0.9
629,2018-12-19,1.1
630,2018-12-20,1.1
631,2018-12-21,2.2
632,2018-12-22,1.6
633,2018-12-23,1.1
634,2018-12-24,1.1
635,2018-12-25,1.2
636,2018-12-26,1.9
637,2018-12-27,1.0
638,2018-12-28,1.0
639,2018-12-29,1.2
640,2018-12-30,2.0
641,2018-12-31,1.3
642,2019-01-01,1.1
643,2019-01-02,1.4
644,2019-01-03,1.5
645,2019-01-04,2.0
646,2019-01-05,0.9
647,2019-01-06,1.2
648,2019-01-07,1.2
649,2019-01-08,1.2
650,2019-01-09,1.1
651,2019-01-10,1.4
652,2019-01-11,1.4
653,2019-01-12,1.0
654,2019-01-13,1.0
655,2019-01-14,1.4
656,2019-01-15,1.7
657,2019-01-16,2.0
658,2019-01-17,2.6
659,2019-01-18,1.5
660,2019-01-19,1.3
661,2019-01-20,1.5
662,2019-01-21,1.4
663,2019-01-22,0.9
664,2019-01-23,1.3
665,2019-01-24,1.9
666,2019-01-25,1.8
667,2019-01-26,1.7
668,2019-01-27,1.7
669,2019-01-28,1.1
670,2019-01-29,1.6
671,2019-01-30,1.4
672,2019-01-31,1.6
673,2019-02-01,2.4
674,2019-02-02,2.6
675,2019-02-03,1.7
676,2019-02-04,1.5
677,2019-02-05,2.2
678,2019-02-06,2.0
679,2019-02-07,1.7
680,2019-02-08,1.8
681,2019-02-09,1.9
682,2019-02-10,2.2
683,2019-02-11,2.5
684,2019-02-12,3.8
685,2019-02-13,1.9
686,2019-03-05,2.8
687,2019-03-06,2.9
688,2019-03-07,4.0
689,2019-03-08,6.7
690,2019-03-09,4.6
691,2019-03-10,6.1
692,2019-03-11,4.6
693,2019-03-12,3.7
694,2019-03-13,3.8
695,2019-03-14,4.4
696,2019-03-15,3.0
697,2019-03-16,3.2
698,2019-03-17,3.3
699,2019-03-18,5.1
700,2019-03-19,5.8
701,2019-03-20,2.6
702,2019-03-21,2.0
703,2019-03-22,3.8
704,2019-03-23,2.9
705,2019-03-24,3.7
706,2019-03-25,3.4
707,2019-03-26,3.0
708,2019-03-27,4.4
709,2019-03-28,3.4
710,2019-03-29,3.8
711,2019-03-30,3.5
712,2019-03-31,4.1
713,2019-04-01,2.9
714,2019-04-02,3.8
715,2019-04-03,3.7
716,2019-04-04,3.1
717,2019-04-05,3.8
718,2019-04-06,4.4
719,2019-04-07,4.9
720,2019-04-08,3.8
721,2019-04-09,4.5
722,2019-04-10,5.3
723,2019-04-11,5.5
724,2019-04-12,4.5
725,2019-04-13,4.9
726,2019-04-14,4.8
727,2019-04-15,5.7
728,2019-04-16,8.0
729,2019-04-17,7.6
730,2019-04-18,7.3
731,2019-04-19,6.0
732,2019-04-20,6.4
733,2019-04-21,8.9
734,2019-04-22,6.2
735,2019-04-23,5.1
736,2019-04-24,8.9
737,2019-04-25,9.4
738,2019-04-26,8.5
739,2019-04-27,8.8
740,2019-04-28,6.6
741,2019-04-29,5.7
742,2019-04-30,5.1
743,2019-05-01,6.5
744,2019-05-02,6.4
745,2019-05-03,6.8
746,2019-05-04,7.1
747,2019-05-05,6.0
748,2019-05-06,7.7
749,2019-05-07,8.4
750,2019-05-08,8.2
751,2019-05-09,8.9
752,2019-05-10,8.7
753,2019-05-11,9.4
754,2019-05-12,9.3
755,2019-05-13,6.7
756,2019-05-14,5.2
757,2019-05-15,5.8
758,2019-05-16,7.4
759,2019-05-17,8.8
760,2019-05-18,9.2
761,2019-05-19,5.3
762,2019-05-20,6.8
763,2019-05-21,6.6
764,2019-05-22,7.0
765,2019-05-23,7.8
766,2019-05-24,8.4
767,2019-05-25,4.6
768,2019-05-26,4.9
769,2019-05-27,5.5
770,2019-05-28,5.8
771,2019-05-29,9.1
772,2019-05-30,8.8
773,2019-05-31,7.2
774,2019-06-01,7.7
775,2019-06-02,6.2
776,2019-06-03,6.3
777,2019-06-04,6.5
778,2019-06-05,7.2
779,2019-06-06,11.2
780,2019-06-07,11.6
781,2019-06-08,13.1
782,2019-06-09,12.0
783,2019-06-10,10.9
784,2019-06-11,10.5
785,2019-06-12,11.5
786,2019-06-13,11.1
787,2019-06-14,12.3
788,2019-06-15,10.3
789,2019-06-16,11.3
790,2019-06-17,9.1
791,2019-06-18,11.1
792,2019-06-19,8.1
793,2019-06-20,8.5
794,2019-06-21,10.2
795,2019-06-22,12.8
796,2019-06-23,9.9
797,2019-06-24,9.5
798,2019-06-25,13.1
799,2019-06-26,11.1
800,2019-06-27,9.0
801,2019-06-28,9.0
802,2019-06-29,7.1
803,2019-06-30,9.2
804,2019-07-01,9.9
805,2019-07-02,9.4
806,2019-07-03,9.1
807,2019-07-04,8.3
808,2019-07-05,8.0
809,2019-07-06,10.3
810,2019-07-07,9.7
811,2019-07-08,9.5
812,2019-07-09,9.0
813,2019-07-10,9.9
814,2019-07-11,11.2
815,2019-07-12,10.2
816,2019-07-13,8.3
817,2019-07-14,9.4
818,2019-07-15,11.1
819,2019-07-16,8.2
820,2019-07-17,7.6
821,2019-07-18,7.3
822,2019-07-19,9.0
823,2019-07-20,8.4
824,2019-07-21,9.6
825,2019-07-22,8.9
826,2019-07-23,8.4
827,2019-07-24,8.2
828,2019-07-25,7.3
829,2019-07-26,7.7
830,2019-07-27,7.6
831,2019-07-28,11.0
832,2019-09-07,5.3
833,2019-09-08,6.7
834,2019-09-09,6.2
835,2019-09-10,6.8
836,2019-09-11,6.8
837,2019-09-12,6.7
838,2019-09-13,7.2
839,2019-09-14,6.7
840,2019-09-15,5.7
841,2019-09-16,4.8
842,2019-09-17,5.3
843,2019-09-18,6.3
844,2019-09-19,4.5
845,2019-09-20,6.9
846,2019-09-21,8.4
847,2019-09-22,8.6
848,2019-09-23,6.6
849,2019-09-24,8.0
850,2019-09-25,6.9
851,2019-09-26,7.2
852,2019-09-27,5.7
853,2019-09-28,4.5
854,2019-09-29,4.6
855,2019-09-30,6.1
856,2019-10-01,5.1
857,2019-10-02,5.0
858,2019-10-03,4.9
859,2019-10-04,3.2
860,2019-10-05,3.4
861,2019-10-06,2.9
862,2019-10-07,4.7
863,2019-10-08,4.7
864,2019-10-09,4.6
865,2019-10-10,3.6
866,2019-10-11,3.9
867,2019-10-12,3.7
868,2019-10-13,3.5
869,2019-10-14,3.7
870,2019-10-15,3.8
871,2019-10-16,4.8
872,2019-10-17,3.5
873,2019-10-18,3.1
874,2019-10-19,3.7
875,2019-10-20,5.2
876,2019-10-21,7.2
877,2019-10-22,7.2
878,2019-10-23,6.8
879,2019-10-24,3.1
880,2019-10-25,2.6
881,2019-10-26,3.4
882,2019-10-27,2.4
883,2019-10-28,2.7
884,2019-10-29,2.3
885,2019-10-30,2.1
886,2019-10-31,2.0
887,2019-11-01,2.2
888,2019-11-02,2.2
889,2019-11-03,2.9
890,2019-11-04,1.8
891,2019-11-05,2.5
892,2019-11-06,2.5
893,2019-11-07,1.6
894,2019-11-08,1.9
895,2019-11-09,1.7
896,2019-11-10,2.3
897,2019-11-11,1.3
898,2019-11-12,1.4
899,2019-11-13,1.6
900,2019-11-14,1.8
901,2019-11-15,3.1
902,2019-11-16,3.7
903,2019-11-17,1.4
904,2019-11-18,1.5
905,2019-11-19,1.3
906,2019-11-20,1.3
907,2019-11-21,1.4
908,2019-11-22,1.8
909,2019-11-23,2.4
910,2019-11-24,1.2
911,2019-11-25,1.2
912,2019-11-26,1.3
913,2019-11-27,1.5
914,2019-11-28,0.6
915,2019-11-29,1.2
916,2019-11-30,1.4
917,2019-12-01,2.0
918,2019-12-02,2.9
919,2019-12-03,2.5
920,2019-12-04,2.5
921,2019-12-05,1.5
922,2019-12-06,3.0
923,2019-12-07,2.3
924,2019-12-08,3.0
925,2019-12-09,2.1
926,2019-12-10,1.5
927,2019-12-11,1.5
928,2019-12-12,1.1
929,2019-12-13,1.1
930,2019-12-14,1.3
931,2019-12-15,1.3
932,2019-12-16,1.9
933,2019-12-17,4.1
934,2019-12-18,2.1
935,2019-12-19,1.1
936,2019-12-20,1.2
937,2019-12-21,1.2
938,2019-12-22,1.2
939,2019-12-23,1.4
940,2020-02-25,2.7
941,2020-02-26,2.6
942,2020-02-27,3.6
943,2020-02-28,2.6
944,2020-02-29,2.5
945,2020-03-01,2.6
946,2020-03-02,4.5
947,2020-03-03,3.0
948,2020-03-04,3.8
949,2020-03-05,3.4
950,2020-03-06,3.2
951,2020-03-07,3.9
952,2020-03-08,2.9
953,2020-03-09,2.9
954,2020-03-10,3.3
955,2020-03-11,2.6
956,2020-03-12,2.8
957,2020-03-13,3.1
958,2020-03-14,3.5
959,2020-03-15,4.7
960,2020-03-16,4.8
961,2020-03-17,3.1
962,2020-03-18,4.5
963,2020-03-19,3.7
964,2020-03-20,4.5
965,2020-03-21,3.2
966,2020-03-22,3.4
967,2020-03-23,4.5
968,2020-03-24,4.1
969,2020-03-25,2.0
970,2020-03-26,3.3
971,2020-03-27,4.0
972,2020-03-28,4.8
973,2020-03-29,2.4
974,2020-03-30,3
975,2020-03-31,4.0
976,2020-04-01,5.5
977,2020-04-02,5.2
978,2020-04-03,3.0
979,2020-04-04,3.3
980,2020-04-05,3.8
981,2020-04-06,5.6
982,2020-04-07,5.1
983,2020-04-08,5.2
984,2020-04-09,4.8
985,2020-04-10,4.2
986,2020-04-11,5.1
987,2020-04-12,6.2
988,2020-04-13,6.8
989,2020-04-14,7.6
990,2020-04-15,5.7
991,2020-04-16,5.7
992,2020-04-17,6.3
993,2020-04-18,8.1
994,2020-04-19,9
995,2020-04-20,4.0
996,2020-04-21,5.5
997,2020-04-22,5.3
998,2020-04-23,5.6
999,2020-04-24,5.5
1000,2020-04-25,5.8
1001,2020-04-26,8.1
1002,2020-04-27,6.5
1003,2020-04-28,8.3
1004,2020-04-29,7.3
1005,2020-04-30,5.6
1006,2020-05-01,5.7
1007,2020-05-02,7.2
1008,2020-05-03,7.1
1009,2020-05-04,6.5
1010,2020-05-05,7.3
1011,2020-05-06,5.5
1012,2020-05-07,9.2
1013,2020-05-08,7.9
1014,2020-05-09,6.6
1015,2020-05-10,9.7
1016,2020-05-11,9.4
1017,2020-05-12,9.1
1018,2020-05-13,9.9
1019,2020-05-14,6.2
1020,2020-05-15,9.7
1021,2020-05-16,9.2
1022,2020-05-17,9.7
1023,2020-05-18,8.3
1024,2020-05-19,5.6
1025,2020-05-20,5.7
1026,2020-05-21,8
1027,2020-05-22,8.0
1028,2020-05-23,7.8
1029,2020-05-24,8.1
1030,2020-05-25,9.3
1031,2020-05-26,8.8
1032,2020-05-27,1.8
1033,2020-05-28,7.2
1034,2020-05-29,3.6
1035,2020-05-30,6.0
1036,2020-05-31,7.3
1037,2020-06-01,6.5
1038,2020-06-02,7.4
1039,2020-06-03,8.8
1040,2020-06-04,11.3
1041,2020-06-05,9.2
1042,2020-06-06,8.4
1043,2020-06-07,8.8
1044,2020-06-08,6.9
1045,2020-06-09,8.6
1046,2020-06-10,9.1
1047,2020-06-11,9.4
1048,2020-06-12,10.6
1049,2020-06-13,9.9
1050,2020-06-14,9.7
1051,2020-06-15,6.7
1052,2020-06-16,6.2
1053,2020-06-17,8.1
1054,2020-06-18,12.8
1055,2020-06-19,12.1
1056,2020-06-20,10.6
1057,2020-06-21,6.9
1058,2020-06-22,7.6
1059,2020-06-23,7.5
1060,2020-06-24,7.1
1061,2020-06-25,6.9
1062,2020-06-26,7.4
1063,2020-06-27,9.0
1064,2020-06-28,10.9
1065,2020-06-29,10.0
1066,2020-06-30,9.5
1067,2020-07-01,9.2
1068,2020-07-02,10.6
1069,2020-07-03,9.8
1070,2020-07-04,10.3
1071,2020-07-05,8.4
1072,2020-07-06,6.8
1073,2020-07-07,7.6
1074,2020-07-08,7.3
1075,2020-07-09,9.7
1076,2020-07-10,9.6
1077,2020-07-11,8.5
1078,2020-07-12,9.9
1079,2020-07-13,9.7
1080,2020-07-14,10.4
1081,2020-07-15,11.0
1082,2020-07-16,9.1
1083,2020-07-17,8.5
1084,2020-07-18,7.5
1085,2020-07-19,7.8
1086,2020-07-20,8.2
1087,2020-07-21,8.2
1088,2020-07-22,8.5
1089,2020-07-23,8.8
1090,2020-07-24,7.4
1091,2020-07-25,9.7
1092,2020-07-26,9.0
1093,2020-07-27,10.3
1094,2020-07-28,9.9
1095,2020-07-29,9.5
1096,2020-07-30,9.0
1097,2020-07-31,9.3
1098,2020-08-01,7.3
1099,2020-08-02,5.9
1100,2020-08-03,6.8
1101,2020-08-04,11.6
1102,2020-08-05,9.6
1103,2020-08-06,8.0
1104,2020-08-07,6.8
1105,2020-08-08,7.5
1107,2020-08-10,7.7
1106,2020-08-09,6.9
1108,2020-08-11,8.6
1109,2020-08-12,9.2
1110,2020-08-13,9.4
1111,2020-08-14,7.7
1112,2020-08-15,7.6
1113,2020-08-16,7.8
1114,2020-08-17,9.7
1115,2020-08-18,10.4
1116,2020-08-19,10.7
1117,2020-08-20,10.9
1118,2020-08-21,10.1
1119,2020-08-22,8.2
1120,2020-08-23,7.8
1121,2020-08-24,7.7
1122,2020-08-25,7.7
1123,2020-08-26,6.8
1124,2020-08-27,6.7
1125,2020-08-28,7.8
1126,2020-08-29,7.0
1127,2020-08-30,8.3
1128,2020-08-31,11.1
1129,2020-09-01,8.7
1130,2020-09-02,4.4
1131,2020-09-03,3.6
1132,2020-09-04,6.2
1133,2020-09-05,6.1
1134,2020-09-06,5.5
1135,2020-09-07,7.3
1136,2020-09-08,6.9
1137,2020-09-09,7.2
1138,2020-09-10,5.9
1139,2020-09-11,7.4
1140,2020-09-12,5.6
1141,2020-09-13,6.2
1142,2020-09-14,5.1
1143,2020-09-15,5.6
1144,2020-09-16,3.8
1145,2020-09-17,4.6
1146,2020-09-18,5.2
1147,2020-09-19,7.0
1148,2020-09-20,5.8
1149,2020-09-21,7.8
1150,2020-09-22,5.0
1151,2020-09-23,4.6
1152,2020-09-24,5.8
1153,2020-09-25,5.2
1154,2020-09-26,5.0
1155,2020-09-27,5.1
1156,2020-09-28,6.2
1157,2020-09-29,5.9
1158,2020-09-30,4.2
1159,2020-10-01,6.0
1160,2020-10-02,6.9
1161,2020-10-03,5.4
1162,2020-10-04,5.8
1163,2020-10-05,5.6
1164,2020-10-06,6.6
1165,2020-10-07,4.7
1166,2020-10-08,4.1
1167,2020-10-09,4.6
1168,2020-10-10,4.7
1169,2020-10-11,4.5
1170,2020-10-12,5.5
1171,2020-10-13,2.5
1172,2020-10-14,3.4
1173,2020-10-15,4.6
1174,2020-10-16,4.8
1175,2020-10-17,4.9
1176,2020-10-18,3.2
1177,2020-10-19,2.5
1178,2020-10-20,3.0
1179,2020-10-21,4.7
1207,2020-11-18,2.3
1208,2020-11-19,2.2
1209,2020-11-20,2.1
1210,2020-11-21,1.4
1180,2020-10-22,6.2
1181,2020-10-23,5.7
1182,2020-10-24,4.1
1183,2020-10-25,3.2
1184,2020-10-26,2.6